| time (UTC) | temp F | wind direction | speed MPH | gust MPH | rain 1hr in | rain 24hr in | rain mn in | humidity % | barometer mb |
| 20260503130818 | 50 | 71 | 2.0 | 2.0 | 0.00 | 0.00 | 0.00 | 94 | 1013.7 |
| 20260503072806 | 53 | 82 | 0.0 | 0.0 | 0.00 | 0.00 | 0.00 | 90 | 1013.9 |
| 20260503071805 | 53 | 82 | 0.0 | 1.0 | 0.00 | 0.00 | 0.00 | 90 | 1013.9 |
| 20260503070805 | 53 | 82 | 0.0 | 2.0 | 0.00 | 0.00 | 0.00 | 90 | 1013.8 |
| 20260503054806 | 58 | 51 | 0.0 | 1.0 | 0.00 | 0.00 | 0.00 | 79 | 1013.6 |
| 20260503054802 | 58 | 42 | 0.0 | 2.0 | 0.00 | 0.00 | 0.00 | 79 | 1013.5 |
| 20260503053907 | 59 | 329 | 0.0 | 1.0 | 0.00 | 0.00 | 0.00 | 78 | 1013.5 |
| 20260503052801 | 59 | 27 | 0.0 | 1.0 | 0.00 | 0.00 | 0.00 | 77 | 1013.5 |
| 20260503050801 | 59 | 302 | 0.0 | 0.0 | 0.00 | 0.00 | 0.00 | 78 | 1013.5 |
| 20260503045800 | 59 | 278 | 0.0 | 0.0 | 0.00 | 0.00 | 0.00 | 78 | 1013.4 |
| 20260503044802 | 59 | 272 | 0.0 | 0.0 | 0.00 | 0.00 | 0.00 | 78 | 1013.4 |
| 20260503043800 | 59 | 272 | 0.0 | 0.0 | 0.00 | 0.00 | 0.00 | 79 | 1013.3 |
| 20260503042800 | 60 | 272 | 0.0 | 0.0 | 0.00 | 0.00 | 0.00 | 76 | 1013.2 |
| 20260503041800 | 60 | 272 | 0.0 | 0.0 | 0.00 | 0.00 | 0.00 | 75 | 1013.3 |
| 20260503040804 | 61 | 269 | 0.0 | 3.0 | 0.00 | 0.00 | 0.00 | 75 | 1013.1 |
| 20260503040800 | 61 | 292 | 0.0 | 3.0 | 0.00 | 0.00 | 0.00 | 74 | 1013.2 |
| 20260503034758 | 61 | 286 | 1.0 | 4.0 | 0.00 | 0.00 | 0.00 | 74 | 1013.0 |
| 20260503033800 | 61 | 320 | 0.0 | 2.0 | 0.00 | 0.00 | 0.00 | 75 | 1012.8 |
| 20260503032802 | 63 | 272 | 0.0 | 3.0 | 0.00 | 0.00 | 0.00 | 74 | 1012.7 |
| 20260503032758 | 62 | 285 | 0.0 | 1.0 | 0.00 | 0.00 | 0.00 | 75 | 1012.7 |
| 20260503030757 | 63 | 258 | 1.0 | 3.0 | 0.00 | 0.00 | 0.00 | 74 | 1012.5 |
| 20260503025757 | 64 | 235 | 1.0 | 4.0 | 0.00 | 0.00 | 0.00 | 72 | 1012.6 |
| 20260503024802 | 65 | 259 | 3.0 | 9.0 | 0.00 | 0.00 | 0.00 | 68 | 1012.6 |
| 20260503024758 | 64 | 226 | 2.0 | 7.0 | 0.00 | 0.00 | 0.00 | 70 | 1012.6 |
| 20260503022757 | 66 | 307 | 2.0 | 6.0 | 0.00 | 0.00 | 0.00 | 67 | 1012.6 |
| 20260503021802 | 68 | 290 | 3.0 | 9.0 | 0.00 | 0.00 | 0.00 | 64 | 1012.7 |
| 20260503021755 | 66 | 293 | 4.0 | 7.0 | 0.00 | 0.00 | 0.00 | 66 | 1012.6 |
| 20260503020755 | 67 | 279 | 4.0 | 9.0 | 0.00 | 0.00 | 0.00 | 66 | 1012.6 |
| 20260503015755 | 67 | 257 | 3.0 | 6.0 | 0.00 | 0.00 | 0.00 | 65 | 1012.6 |
| 20260503013754 | 68 | 305 | 5.0 | 9.0 | 0.00 | 0.00 | 0.00 | 64 | 1012.7 |
| 20260503012754 | 69 | 282 | 6.0 | 12.0 | 0.00 | 0.00 | 0.00 | 60 | 1012.8 |
| 20260503011757 | 70 | 245 | 4.0 | 10.0 | 0.00 | 0.00 | 0.00 | 60 | 1012.8 |
| 20260503011753 | 70 | 281 | 6.0 | 12.0 | 0.00 | 0.00 | 0.00 | 60 | 1012.7 |
| 20260503005752 | 70 | 261 | 6.0 | 11.0 | 0.00 | 0.00 | 0.00 | 59 | 1012.8 |
| 20260503004757 | 69 | 292 | 5.0 | 12.0 | 0.00 | 0.00 | 0.00 | 63 | 1012.9 |
| 20260503004752 | 70 | 290 | 6.0 | 11.0 | 0.00 | 0.00 | 0.00 | 61 | 1012.9 |
| 20260503003752 | 69 | 278 | 6.0 | 11.0 | 0.00 | 0.00 | 0.00 | 61 | 1012.9 |
| 20260503002750 | 69 | 244 | 5.0 | 11.0 | 0.00 | 0.00 | 0.00 | 64 | 1013.0 |
| 20260503000749 | 70 | 255 | 9.0 | 14.0 | 0.00 | 0.00 | 0.00 | 60 | 1013.1 |
| 20260502235749 | 72 | 258 | 9.0 | 14.0 | 0.00 | 0.00 | 0.00 | 53 | 1013.0 |
| 20260502234750 | 72 | 292 | 9.0 | 18.0 | 0.00 | 0.00 | 0.00 | 49 | 1013.1 |
| 20260502233750 | 71 | 300 | 10.0 | 19.0 | 0.00 | 0.00 | 0.00 | 50 | 1013.2 |
| 20260502232750 | 71 | 238 | 10.0 | 16.0 | 0.00 | 0.00 | 0.00 | 52 | 1013.2 |
| 20260502231750 | 70 | 289 | 6.0 | 17.0 | 0.00 | 0.00 | 0.00 | 56 | 1013.4 |
| 20260502230749 | 70 | 293 | 5.0 | 15.0 | 0.00 | 0.00 | 0.00 | 58 | 1013.4 |
| 20260502225749 | 69 | 286 | 9.0 | 14.0 | 0.00 | 0.00 | 0.00 | 59 | 1013.6 |
| 20260502224748 | 68 | 266 | 8.0 | 14.0 | 0.00 | 0.00 | 0.00 | 62 | 1013.8 |
| 20260502223751 | 68 | 274 | 5.0 | 15.0 | 0.00 | 0.00 | 0.00 | 67 | 1013.9 |
| 20260502222748 | 67 | 269 | 9.0 | 15.0 | 0.00 | 0.00 | 0.00 | 66 | 1014.0 |
| 20260502221748 | 67 | 262 | 9.0 | 14.0 | 0.00 | 0.00 | 0.00 | 67 | 1014.2 |
| 20260502220748 | 67 | 244 | 8.0 | 14.0 | 0.00 | 0.00 | 0.00 | 68 | 1014.4 |
| 20260502215747 | 67 | 288 | 7.0 | 20.0 | 0.00 | 0.00 | 0.00 | 66 | 1014.4 |
| 20260502214747 | 67 | 290 | 9.0 | 19.0 | 0.00 | 0.00 | 0.00 | 63 | 1014.6 |
| 20260502213746 | 67 | 274 | 8.0 | 18.0 | 0.00 | 0.00 | 0.00 | 63 | 1014.6 |
| 20260502212746 | 67 | 278 | 10.0 | 17.0 | 0.00 | 0.00 | 0.00 | 62 | 1014.9 |
| 20260502211746 | 66 | 265 | 7.0 | 17.0 | 0.00 | 0.00 | 0.00 | 66 | 1014.9 |
| 20260502210746 | 66 | 296 | 9.0 | 17.0 | 0.00 | 0.00 | 0.00 | 65 | 1015.1 |
| 20260502205748 | 65 | 274 | 7.0 | 13.0 | 0.00 | 0.00 | 0.00 | 75 | 1015.2 |
| 20260502205743 | 65 | 324 | 8.0 | 16.0 | 0.00 | 0.00 | 0.00 | 71 | 1015.2 |
| 20260502203745 | 65 | 288 | 8.0 | 17.0 | 0.00 | 0.00 | 0.00 | 75 | 1015.5 |
| 20260502202741 | 64 | 250 | 6.0 | 15.0 | 0.00 | 0.00 | 0.00 | 77 | 1015.4 |
| 20260502201744 | 64 | 290 | 6.0 | 12.0 | 0.00 | 0.00 | 0.00 | 80 | 1015.5 |
| 20260502200748 | 63 | 268 | 7.0 | 16.0 | 0.00 | 0.00 | 0.00 | 81 | 1015.8 |
| 20260502200743 | 62 | 245 | 7.0 | 14.0 | 0.00 | 0.00 | 0.00 | 80 | 1015.7 |
| 20260502194742 | 63 | 278 | 7.0 | 14.0 | 0.00 | 0.00 | 0.00 | 80 | 1015.9 |
| 20260502193742 | 64 | 296 | 7.0 | 13.0 | 0.00 | 0.00 | 0.00 | 79 | 1015.8 |
| 20260502192744 | 63 | 282 | 6.0 | 13.0 | 0.00 | 0.00 | 0.00 | 80 | 1015.8 |
| 20260502191743 | 62 | 283 | 6.0 | 12.0 | 0.00 | 0.00 | 0.00 | 80 | 1016.0 |
| 20260502190741 | 62 | 323 | 8.0 | 12.0 | 0.00 | 0.00 | 0.00 | 80 | 1016.1 |
| 20260502185742 | 62 | 259 | 7.0 | 14.0 | 0.00 | 0.00 | 0.00 | 82 | 1016.2 |